Snowfall_Accumulation
0.0 0.0 0.0 0.0 0.0 0.0 0.0 0.0 0.0 0.0 0.0 0.0 0.0 0.0 0.1 0.2 0.4 0.5 0.8 1.3 1.6 1.3
0.0 0.0 0.0 0.0 0.0 0.0 0.0 0.0 0.0 0.0 0.0 0.0 0.0 0.1 0.4 0.8 1.1 1.1 1.5 1.5 1.3 1.4
0.0 0.0 0.0 0.0 0.0 0.0 0.0 0.0 0.0 0.0 0.0 0.0 0.0 0.4 1.0 1.4 1.4 1.8 1.5 1.9 2.2 1.3
0.0 0.0 0.0 0.0 0.0 0.0 0.0 0.0 0.0 0.0 0.0 0.2 0.6 0.8 1.4 1.9 2.1 2.1 2.0 2.1 2.9 2.3
0.0 0.0 0.0 0.0 0.0 0.0 0.0 0.0 0.0 0.0 0.1 0.4 0.2 0.9 1.7 2.7 2.7 2.4 2.3 2.6 2.7 2.8
0.0 0.0 0.0 0.0 0.0 0.0 0.0 0.0 0.0 0.0 0.2 0.5 0.6 1.0 1.5 2.7 2.7 2.5 3.4 3.7 3.9 3.0
0.0 0.0 0.0 0.0 0.0 0.0 0.0 0.0 0.0 0.0 0.4 0.8 0.9 1.3 1.9 1.9 2.3 3.2 3.9 3.4 3.0 1.8
0.0 0.0 0.0 0.0 0.0 0.0 0.0 0.0 0.0 0.0 0.4 1.2 1.9 2.6 3.1 2.8 3.5 3.9 3.6 2.6 1.0 1.1
0.0 0.0 0.0 0.0 0.0 0.0 0.0 0.0 0.0 0.1 0.2 1.1 3.2 3.0 2.7 3.5 4.7 4.8 4.4 4.0 1.9 1.6
0.0 0.0 0.0 0.0 0.0 0.0 0.0 0.0 0.0 0.1 0.5 1.2 3.0 2.0 2.0 2.7 4.1 5.1 5.3 4.5 2.3 1.6
0.0 0.0 0.0 0.0 0.0 0.0 0.0 0.0 0.1 0.2 1.0 1.5 3.4 2.1 1.3 1.6 1.7 1.6 1.7 2.0 2.7 2.9
0.0 0.0 0.0 0.0 0.0 0.0 0.0 0.0 0.0 0.0 0.4 1.0 2.4 1.9 1.5 0.0 0.1 0.2 0.6 0.8 1.8 2.5
0.0 0.0 0.0 0.0 0.0 0.0 0.0 0.0 0.0 0.0 0.2 0.4 0.5 0.7 0.2 0.2 0.0 0.0 0.1 0.2 0.2 0.7
0.0 0.0 0.0 0.0 0.0 0.0 0.0 0.0 0.0 0.0 0.1 0.4 0.3 0.2 0.3 0.0 0.0 0.0 0.0 0.0 0.2 0.6